[[{"header":{"parameterUnit":"m.s-1","parameterCategory":1,"la1":30.2991,"la2":30.254,"lo1":-89.0895,"lo2":-89.0444,"dy":0.0017,"dx":0.0017,"nx":28,"ny":28,"refTime":"2024-06-16T09:00:00:Z","depth":0,"parameterNumber":2,"parameterNumberName":"U-component_of_WINDS"},"data":[0,0,0,0,0,0,0,0,0,0,0,0,0,0,0,0,0,0,0,0,0,0,0,0,0,0,0,0,0,0,0,0,0,0,0,0,0,0,0,0,0,0,0,0,0,0,0,0,0,0,0,0,0,0,0,0,0,0,-6.0664,-6.0664,0,-6.065,-6.065,-6.065,-6.0418,-6.0412,-6.0406,-6.0401,-6.0389,-6.0394,-6.0399,0,0,0,0,0,0,0,0,0,0,0,0,0,-6.0491,-6.0495,-6.0664,-6.0664,-6.0663,-6.065,-6.065,-6.065,-6.0419,-6.0412,-6.0405,-6.0398,-6.0387,-6.0393,-6.04,0,0,0,0,0,0,0,0,0,0,0,0,0,-6.0531,-6.0497,-6.0664,-6.0547,-6.0536,-6.065,-6.065,-6.065,-6.0421,-6.0412,-6.0403,-6.0395,-6.0385,-6.0393,-6.0401,-6.0626,0,0,-6.0424,-6.0428,0,0,0,0,0,0,0,0,-6.0529,-6.0537,-6.0564,-6.0555,-6.0543,-6.0527,-6.0584,-6.0642,-6.0423,-6.0465,-6.0401,-6.039,-6.0442,-6.0445,-6.0462,-6.0626,-6.0625,-6.0425,-6.043,-6.0433,-6.0435,0,0,0,0,0,0,0,-6.0526,-6.0536,-6.0658,-6.0565,-6.0552,-6.0495,-6.0491,-6.0594,-6.0503,-6.046,-6.0443,-6.0445,-6.0435,-6.0455,-6.046,-6.0625,-6.0425,-6.0432,-6.0437,-6.044,-6.0972,-6.0981,0,0,0,0,0,0,-6.0539,-6.0536,-6.0659,-6.0658,-6.0514,-6.0505,-6.0501,-6.0541,-6.0502,-6.0487,-6.0453,-6.0434,-6.0446,-6.0451,-6.0458,-6.0719,-6.0433,-6.044,-6.0445,-6.0963,-6.0974,-6.0984,0,0,0,0,0,0,-6.0537,-6.0553,-6.0659,-6.0592,-6.0601,-6.0518,-6.0565,-6.0545,-6.0565,-6.0496,-6.0478,-6.049,-6.0439,-6.0447,-6.0586,-6.0715,-6.0444,-6.0451,-6.0951,-6.0966,-6.0979,-6.1243,0,0,0,0,0,0,-6.0533,-6.0553,-6.0638,-6.0596,-6.0606,-6.0788,-6.0573,-6.0552,-6.0579,-6.0555,-6.0526,-6.0513,-6.0433,-6.0575,-6.0594,-6.0721,-6.0457,-6.0939,-6.0958,-6.0975,-6.1222,-6.1264,-6.13,0,0,0,0,0,-6.0527,-6.0713,-6.0643,-6.0659,-6.071,-6.0795,-6.0801,-6.0705,-6.059,-6.0675,-6.063,-6.0513,-6.0699,-6.0592,-6.061,-6.0742,-6.0931,-6.0953,-6.0973,-6.1204,-6.1256,-6.1299,0,0,0,0,0,0,-6.0774,-6.0706,-6.0627,-6.0805,-6.0808,-6.0756,-6.0859,-6.0762,-6.0798,-6.0774,-6.0653,-6.0649,-6.0806,-6.0787,-6.067,-6.0957,-6.0794,-6.082,-6.0964,-6.1012,-6.105,-6.1051,-6.0464,0,0,0,0,0,-6.0849,-6.0923,-6.086,-6.1023,-6.1028,-6.0945,-6.0978,-6.0903,-6.0901,-6.0901,-6.0866,-6.087,-6.0927,-6.0969,-6.1019,-6.1218,-6.1208,-6.1318,-6.1357,-6.139,-6.1413,-6.1516,-6.1564,-6.1054,-6.1054,-6.1054,0,0,-6.1004,-6.0976,-6.1031,-6.1072,-6.1065,-6.1144,-6.0947,-6.104,-6.1098,-6.0915,-6.1043,-6.1019,-6.1014,-6.1184,-6.1257,-6.1173,-6.1552,-6.1417,-6.1443,-6.1449,-6.1543,-6.1592,-6.1635,-6.1069,-6.1066,-6.1064,0,0,-6.1328,-6.1316,-6.1449,-6.1446,-6.1437,-6.138,-6.1413,-6.1376,-6.1352,-6.1478,-6.1343,-6.1411,-6.1514,-6.1515,-6.153,-6.1855,-6.1749,-6.1875,-6.2078,-6.218,-6.222,-6.2255,-6.237,-6.2413,-6.1899,-6.1899,-6.19,0,-6.1523,-6.1637,-6.153,-6.1632,-6.1653,-6.1491,-6.1625,-6.1628,-6.1638,-6.1656,-6.1562,-6.1688,-6.1673,-6.1841,-6.192,-6.1938,-6.197,-6.1877,-6.2223,-6.2257,-6.2288,-6.2396,-6.244,-6.1915,-6.1913,-6.1911,-6.191,0,-6.1876,-6.1958,-6.2067,-6.2078,-6.2112,-6.223,-6.2141,-6.2188,-6.2111,-6.2065,-6.2195,-6.2172,-6.2214,-6.2248,-6.2175,-6.2406,-6.2354,-6.2244,-6.2077,-6.2354,-6.2453,-6.2494,-6.1937,-6.1931,-6.1926,-6.1923,0,0,-6.2354,-6.2305,-6.2347,-6.2349,-6.2328,-6.2389,-6.25,-6.254,-6.2582,-6.2595,-6.2683,-6.2775,-6.2672,-6.2689,-6.2614,-6.2704,-6.2961,-6.2582,-6.258,-6.2652,-6.3213,-6.3295,-6.3345,-6.2891,-6.2899,-6.2905,-6.3213,0,-6.2666,-6.285,-6.2757,-6.2954,-6.3027,-6.2874,-6.297,-6.2968,-6.2928,-6.2984,-6.2939,-6.3005,-6.2866,-6.2875,-6.2957,-6.2913,-6.3072,-6.2889,-6.2972,-6.2977,-6.2977,-6.3397,-6.3483,-6.3776,-6.3251,-6.3258,-6.3263,0,-6.3054,-6.3081,-6.3285,-6.3248,-6.3276,-6.3364,-6.3392,-6.3449,-6.3443,-6.3407,-6.3426,-6.333,-6.3435,-6.3272,-6.3415,-6.3293,-6.3322,-6.3306,-6.3314,-6.3317,-6.3136,-6.341,-6.3867,-6.391,-6.3323,-6.3318,-6.3314,0,-6.338,-6.3468,-6.36,-6.3608,-6.357,-6.3635,-6.3622,-6.3608,-6.3638,-6.3663,-6.3681,-6.372,-6.3741,-6.3773,-6.3689,-6.3578,-6.3845,-6.3674,-6.3817,-6.382,-6.3879,-6.3876,-6.4346,-6.3901,-6.3901,-6.39,-6.3899,0,-6.3737,-6.3867,-6.3746,-6.3828,-6.3969,-6.3861,-6.4004,-6.3975,-6.3964,-6.4037,-6.3908,-6.398,-6.3866,-6.3927,-6.3862,-6.3991,-6.4002,-6.3975,-6.3956,-6.3986,-6.3989,-6.4002,-6.3979,-6.3911,-6.3909,-6.3906,-6.3904,0,-6.4125,-6.4049,-6.4183,-6.4136,-6.4127,-6.4234,-6.4193,-6.4267,-6.4217,-6.4312,-6.4328,-6.4251,-6.4315,-6.4236,-6.4294,-6.425,-6.4424,-6.4376,-6.4426,-6.4412,-6.4559,-6.4546,-6.5052,-6.5112,-6.4631,-6.4636,-6.464,0,-6.4356,-6.4453,-6.4416,-6.4455,-6.445,-6.4515,-6.4544,-6.4442,-6.4478,-6.4479,-6.4553,-6.4606,-6.4643,-6.4754,-6.4703,-6.4747,-6.4697,-6.4872,-6.4703,-6.473,-6.4698,-6.4693,-6.4702,-6.4906,-6.4912,-6.4917,-6.4921,0,-6.4775,-6.4733,-6.4779,-6.4814,-6.4853,-6.4875,-6.4888,-6.4928,-6.4821,-6.4868,-6.4932,-6.4961,-6.5019,-6.5074,-6.5104,-6.509,-6.4989,-6.4974,-6.5009,-6.504,-6.5064,-6.5051,-6.4519,-6.4963,-6.4959,-6.4955,-6.4953,-6.4951,-6.509,-6.5168,-6.5154,-6.521,-6.5209,-6.5224,-6.529,-6.5249,-6.53,-6.5339,-6.5276,-6.5356,-6.5348,-6.5377,-6.5375,-6.5437,-6.5362,-6.5413,-6.5426,-6.544,-6.5462,-6.5056,-6.5442,-6.5441,-6.544,-6.5439,-6.5438,0,-6.5501,-6.5484,-6.5537,-6.5558,-6.5603,-6.5502,-6.5511,-6.5555,-6.5627,-6.5627,-6.5666,-6.574,-6.5792,-6.5746,-6.5789,-6.5848,-6.5802,-6.5862,-6.5856,-6.5854,-6.5527,-6.5492,-6.5898,-6.5898,-6.5898,-6.5898,-6.5898,-6.5898,-6.5719,-6.5845,-6.5802,-6.5926,-6.5908,-6.5984,-6.5998,-6.6011,-6.601,-6.6098,-6.614,-6.611,-6.6091,-6.6132,-6.6176,-6.6161,-6.6182,-6.6259,-6.6228,-6.5923,-6.5878,-6.5834,-6.58,-6.6265,-6.6266,-6.6549,-6.6552,-6.6554]},{"header":{"parameterUnit":"m.s-1","parameterCategory":1,"la1":30.2991,"la2":30.254,"lo1":-89.0895,"lo2":-89.0444,"dy":0.0017,"dx":0.0017,"nx":28,"ny":28,"refTime":"2024-06-16T09:00:00:Z","depth":0,"parameterNumber":3,"parameterNumberName":"V-component_of_WINDS"},"data":[0,0,0,0,0,0,0,0,0,0,0,0,0,0,0,0,0,0,0,0,0,0,0,0,0,0,0,0,0,0,0,0,0,0,0,0,0,0,0,0,0,0,0,0,0,0,0,0,0,0,0,0,0,0,0,0,0,0,-0.9179,-0.9179,0,-0.9177,-0.9177,-0.9177,-0.9209,-0.9209,-0.921,-0.9211,-0.9209,-0.9208,-0.9208,0,0,0,0,0,0,0,0,0,0,0,0,0,-0.9208,-0.9208,-0.9179,-0.9179,-0.9179,-0.9177,-0.9177,-0.9177,-0.9208,-0.9209,-0.921,-0.9211,-0.9209,-0.9208,-0.9207,0,0,0,0,0,0,0,0,0,0,0,0,0,-0.92,-0.9207,-0.9179,-0.9194,-0.9195,-0.9177,-0.9177,-0.9177,-0.9208,-0.9209,-0.9211,-0.9212,-0.921,-0.9209,-0.9207,-0.9174,0,0,-0.9203,-0.9203,0,0,0,0,0,0,0,0,-0.92,-0.9199,-0.9192,-0.9193,-0.9195,-0.9194,-0.9187,-0.9176,-0.9208,-0.9203,-0.9211,-0.9213,-0.9203,-0.9203,-0.9199,-0.9174,-0.9174,-0.9203,-0.9203,-0.9202,-0.9202,0,0,0,0,0,0,0,-0.9201,-0.9199,-0.9178,-0.9192,-0.9193,-0.9201,-0.9201,-0.9185,-0.9196,-0.9204,-0.9206,-0.9205,-0.9204,-0.9201,-0.92,-0.9174,-0.9203,-0.9202,-0.9201,-0.9201,-0.9118,-0.9117,0,0,0,0,0,0,-0.9199,-0.9199,-0.9178,-0.9178,-0.9201,-0.9199,-0.92,-0.9193,-0.9196,-0.9198,-0.9204,-0.9207,-0.9202,-0.9201,-0.92,-0.9159,-0.9202,-0.9201,-0.92,-0.9119,-0.9118,-0.9116,0,0,0,0,0,0,-0.92,-0.9197,-0.9178,-0.9189,-0.9187,-0.9197,-0.919,-0.9192,-0.9189,-0.9197,-0.9199,-0.9199,-0.9203,-0.9201,-0.9179,-0.9159,-0.92,-0.9199,-0.9121,-0.9119,-0.9117,-0.9077,0,0,0,0,0,0,-0.9201,-0.9197,-0.9185,-0.9189,-0.9187,-0.9158,-0.9189,-0.9191,-0.9186,-0.919,-0.9192,-0.9193,-0.9204,-0.9181,-0.9178,-0.9158,-0.9198,-0.9123,-0.912,-0.9118,-0.9081,-0.9074,-0.9069,0,0,0,0,0,-0.9202,-0.9174,-0.9184,-0.9181,-0.9171,-0.9157,-0.9156,-0.9168,-0.9185,-0.9172,-0.9177,-0.9193,-0.9162,-0.9179,-0.9176,-0.9155,-0.9124,-0.9121,-0.9118,-0.9083,-0.9075,-0.9069,0,0,0,0,0,0,-0.9168,-0.9175,-0.9186,-0.9159,-0.9157,-0.9162,-0.9147,-0.916,-0.9153,-0.9156,-0.9173,-0.9173,-0.9148,-0.915,-0.9168,-0.9121,-0.9146,-0.9142,-0.9121,-0.9114,-0.9108,-0.9107,-0.9197,0,0,0,0,0,-0.9158,-0.9145,-0.9152,-0.9128,-0.9126,-0.9136,-0.9131,-0.914,-0.9139,-0.9138,-0.9142,-0.9139,-0.9129,-0.9122,-0.9113,-0.9082,-0.9081,-0.9066,-0.906,-0.9055,-0.9051,-0.9032,-0.9024,-0.9106,-0.9106,-0.9106,0,0,-0.9136,-0.9138,-0.913,-0.9121,-0.9121,-0.9107,-0.9136,-0.912,-0.911,-0.9136,-0.9115,-0.9117,-0.9116,-0.9088,-0.9077,-0.9089,-0.9028,-0.9051,-0.9047,-0.9045,-0.9028,-0.902,-0.9013,-0.9103,-0.9104,-0.9104,0,0,-0.9088,-0.909,-0.9068,-0.9067,-0.9066,-0.9073,-0.9067,-0.907,-0.9073,-0.9052,-0.907,-0.9058,-0.9041,-0.9038,-0.9034,-0.8985,-0.8999,-0.8982,-0.895,-0.8932,-0.8925,-0.892,-0.89,-0.8893,-0.8978,-0.8978,-0.8978,0,-0.9061,-0.9041,-0.9056,-0.9039,-0.9034,-0.9056,-0.9034,-0.9033,-0.9028,-0.9024,-0.9038,-0.9015,-0.9016,-0.8987,-0.8975,-0.8972,-0.8965,-0.8981,-0.8925,-0.892,-0.8915,-0.8896,-0.8888,-0.8975,-0.8976,-0.8976,-0.8976,0,-0.9007,-0.8993,-0.8976,-0.897,-0.8964,-0.8944,-0.8955,-0.8947,-0.8957,-0.8962,-0.8939,-0.8941,-0.8932,-0.8926,-0.8937,-0.8898,-0.8906,-0.8922,-0.8947,-0.8904,-0.8887,-0.888,-0.8972,-0.8973,-0.8974,-0.8974,0,0,-0.8938,-0.894,-0.8933,-0.893,-0.893,-0.8919,-0.89,-0.8891,-0.8882,-0.8879,-0.8862,-0.8846,-0.8861,-0.8856,-0.8867,-0.8851,-0.8809,-0.8869,-0.887,-0.8856,-0.8764,-0.875,-0.8741,-0.8819,-0.8818,-0.8817,-0.8763,0,-0.889,-0.8857,-0.8869,-0.8835,-0.8821,-0.8842,-0.8826,-0.8823,-0.8828,-0.8816,-0.8821,-0.8808,-0.883,-0.8827,-0.8813,-0.8817,-0.879,-0.8821,-0.8802,-0.8801,-0.8799,-0.8733,-0.8718,-0.8668,-0.8757,-0.8756,-0.8755,0,-0.8829,-0.8822,-0.8786,-0.8787,-0.8781,-0.8766,-0.8757,-0.8747,-0.8744,-0.8748,-0.8743,-0.8756,-0.8737,-0.8763,-0.8736,-0.8756,-0.875,-0.875,-0.8749,-0.8746,-0.8774,-0.8725,-0.8652,-0.8643,-0.8745,-0.8746,-0.8746,0,-0.8779,-0.8761,-0.8736,-0.8734,-0.8734,-0.8723,-0.8722,-0.8721,-0.8714,-0.8707,-0.8702,-0.8693,-0.8687,-0.868,-0.869,-0.8708,-0.866,-0.8688,-0.8661,-0.8661,-0.8649,-0.8649,-0.8571,-0.8648,-0.8648,-0.8648,-0.8649,0,-0.8723,-0.8699,-0.8714,-0.8698,-0.8673,-0.8687,-0.8661,-0.8663,-0.8662,-0.8647,-0.8666,-0.8651,-0.8667,-0.8653,-0.8661,-0.8636,-0.8634,-0.8636,-0.8638,-0.8633,-0.8632,-0.8627,-0.863,-0.8646,-0.8647,-0.8647,-0.8648,0,-0.8662,-0.8671,-0.8645,-0.8648,-0.8648,-0.8628,-0.863,-0.8616,-0.8621,-0.8602,-0.8599,-0.8607,-0.8592,-0.8602,-0.8588,-0.8593,-0.8559,-0.8567,-0.8559,-0.8561,-0.8533,-0.8535,-0.8447,-0.8435,-0.8522,-0.8521,-0.8521,0,-0.8624,-0.8606,-0.8607,-0.8598,-0.8596,-0.8582,-0.8574,-0.8588,-0.8579,-0.8574,-0.856,-0.8547,-0.8537,-0.8512,-0.8517,-0.8505,-0.8512,-0.8482,-0.851,-0.8505,-0.8508,-0.8508,-0.8506,-0.8475,-0.8474,-0.8474,-0.8473,0,-0.8555,-0.856,-0.8549,-0.8538,-0.8529,-0.8521,-0.8515,-0.8507,-0.852,-0.851,-0.8494,-0.8487,-0.8471,-0.8457,-0.8447,-0.8447,-0.8461,-0.8464,-0.8457,-0.8451,-0.8446,-0.8445,-0.8541,-0.8466,-0.8466,-0.8467,-0.8467,-0.8468,-0.8503,-0.8488,-0.8485,-0.8471,-0.8468,-0.8461,-0.8447,-0.8451,-0.8438,-0.8426,-0.8435,-0.8417,-0.8413,-0.8402,-0.8399,-0.8384,-0.8396,-0.8387,-0.8384,-0.8381,-0.8376,-0.845,-0.8383,-0.8383,-0.8384,-0.8384,-0.8384,0,-0.8433,-0.8432,-0.842,-0.841,-0.8399,-0.8414,-0.8408,-0.8397,-0.838,-0.8376,-0.8366,-0.8347,-0.8334,-0.8337,-0.8324,-0.8312,-0.8318,-0.8308,-0.8307,-0.8307,-0.8367,-0.8373,-0.8303,-0.8303,-0.8303,-0.8303,-0.8303,-0.8303,-0.8395,-0.8369,-0.8374,-0.8346,-0.8345,-0.8326,-0.8321,-0.8315,-0.8312,-0.829,-0.8279,-0.8281,-0.8279,-0.8266,-0.8254,-0.8255,-0.8249,-0.8236,-0.8239,-0.8295,-0.8303,-0.831,-0.8316,-0.8235,-0.8235,-0.818,-0.8179,-0.8179]}]]